Flag for USA

Past Weather in 42°02'02.6"N, 87°58'39.9"W, USA — Yesterday and Last 2 Weeks

Now
55 °F

Clear.


Feels Like: 52 °F
Forecast: 62 / 54 °F
Wind: 9 mph from Northeast

Location: Chicago Midway Airport

Current Time: May 31, 2020 at 2:54:28 am

Latest Report: May 31, 2020 at 1:53 am


Visibility: 10 mi

Pressure: 30.26 "Hg

Humidity: 69%

Dew Point: 45 °F

Location of 42°02'02.6"N, 87°58'39.9"WLocation

Past Weather in 42°02'02.6"N, 87°58'39.9"W — Graph

°F

42°02'02.6"N, 87°58'39.9"W Temperature Yesterday

Maximum temperature yesterday: 71 °F (at 12:53 pm)
Minimum temperature yesterday: 56 °F (at 2:53 am)
Average temperature yesterday: 62 °F

High & Low Weather Summary for the Past Weeks

 TemperatureHumidityPressure
High89 °F (May 24, 4:53 pm)100% (May 17, 12:08 am)30.24 "Hg (May 17, 12:08 am)
Low52 °F (May 16, 4:53 am)40% (May 25, 3:53 pm)29.65 "Hg (May 17, 8:27 pm)
Average66 °F77%29.94 "Hg
* Reported May 16 12:53 am — May 31 12:53 am, 42°02'02.6"N, 87°58'39.9"W. Weather by CustomWeather, © 2020

Note: Actual official high and low records may vary slightly from our data, if they occured in-between our weather recording intervals... More about our weather records

42°02'02.6"N, 87°58'39.9"W Weather History for the Previous 24 Hours

Scroll right to see more
 ConditionsComfort  
Time TempWeatherWind HumidityBarometerVisibility
12:53 am
Sun, May 31
56 °FClear.7 mph62%30.24 "Hg10 mi
11:53 pm
Sat, May 30
56 °FClear.7 mph55%30.24 "Hg10 mi
10:53 pm58 °FClear.6 mph54%30.24 "Hg10 mi
9:53 pm58 °FClear.12 mph58%30.23 "Hg10 mi
8:53 pm59 °FPassing clouds.14 mph56%30.21 "Hg10 mi
7:53 pm61 °FPassing clouds.12 mph56%30.18 "Hg10 mi
6:53 pm64 °FPassing clouds.9 mph50%30.17 "Hg10 mi
5:53 pm64 °FPassing clouds.10 mph54%30.16 "Hg10 mi
4:53 pm65 °FPassing clouds.13 mph52%30.16 "Hg10 mi
3:53 pm68 °FScattered clouds.14 mph49%30.15 "Hg10 mi
2:53 pm68 °FPartly sunny.12 mph51%30.15 "Hg10 mi
1:53 pm68 °FMostly cloudy.5 mph53%30.15 "Hg10 mi
12:53 pm71 °FPartly sunny.10 mph42%30.15 "Hg10 mi
11:53 am69 °FPartly sunny.12 mph45%30.16 "Hg10 mi
10:53 am68 °FPartly sunny.6 mph49%30.16 "Hg10 mi
9:53 am67 °FScattered clouds.5 mph51%30.17 "Hg10 mi
8:53 am64 °FPassing clouds.6 mph58%30.18 "Hg10 mi
7:53 am62 °FPassing clouds.5 mph65%30.17 "Hg10 mi
6:53 am59 °FPassing clouds.8 mph72%30.16 "Hg10 mi
5:53 am56 °FPassing clouds.6 mph81%30.16 "Hg10 mi
4:53 am56 °FPassing clouds.5 mph77%30.13 "Hg10 mi
3:53 am56 °FClear.6 mph77%30.11 "Hg10 mi
2:53 am56 °FClear.6 mph75%30.10 "Hg10 mi
Weather by CustomWeather, © 2020

See weather overview

Advertising